TA3ONK-13 Weather Reports


Display with metric or nautical units.
time (UTC)temp
F
wind
direction
speed
MPH
gust
MPH
rain 1hr
in
rain 24hr
in
rain mn
in
humidity
%
barometer
mb
20260507115804 91 0 0.0 0.0 0.00 0.00 0.00 28 1018.6
20260507114304 89 0 0.0 0.0 0.00 0.00 0.00 30 1018.6
20260507112803 92 0 0.0 0.0 0.00 0.00 0.00 28 1018.5
20260507111304 90 0 0.0 0.0 0.00 0.00 0.00 27 1018.5
20260507105805 90 0 0.0 0.0 0.00 0.00 0.00 25 1018.4
20260507104304 89 0 0.0 0.0 0.00 0.00 0.00 26 1018.4
20260507102805 87 0 0.0 0.0 0.00 0.00 0.00 27 1018.4
20260507101305 90 0 0.0 0.0 0.00 0.00 0.00 26 1018.3
20260507095805 89 0 0.0 0.0 0.00 0.00 0.00 27 1018.3
20260507094304 88 0 0.0 0.0 0.00 0.00 0.00 26 1018.2
20260507092805 88 0 0.0 0.0 0.00 0.00 0.00 26 1018.3
20260507091304 89 0 0.0 0.0 0.00 0.00 0.00 27 1018.3
20260507085804 89 0 0.0 0.0 0.00 0.00 0.00 27 1018.5
20260507084305 90 0 0.0 0.0 0.00 0.00 0.00 29 1018.5
20260507082805 88 0 0.0 0.0 0.00 0.00 0.00 29 1018.6
20260507081305 89 0 0.0 0.0 0.00 0.00 0.00 31 1018.6
20260507075804 90 0 0.0 0.0 0.00 0.00 0.00 29 1018.5
20260507074303 89 0 0.0 0.0 0.00 0.00 0.00 32 1018.5
20260507072805 87 0 0.0 0.0 0.00 0.00 0.00 35 1018.5
20260507071303 85 0 0.0 0.0 0.00 0.00 0.00 37 1018.7
20260507065804 78 0 0.0 0.0 0.00 0.00 0.00 43 1018.7
20260507064305 77 0 0.0 0.0 0.00 0.00 0.00 43 1018.7
20260507062804 72 0 0.0 0.0 0.00 0.00 0.00 48 1018.6
20260507061304 73 0 0.0 0.0 0.00 0.00 0.00 45 1018.6
20260507055804 79 0 0.0 0.0 0.00 0.00 0.00 35 1018.6
20260507054304 77 0 0.0 0.0 0.00 0.00 0.00 37 1018.6
20260507052804 77 0 0.0 0.0 0.00 0.00 0.00 39 1018.6
20260507051304 74 0 0.0 0.0 0.00 0.00 0.00 39 1018.4
20260507045803 79 0 0.0 0.0 0.00 0.00 0.00 34 1018.4
20260507044305 78 0 0.0 0.0 0.00 0.00 0.00 35 1018.3
20260507042804 78 0 0.0 0.0 0.00 0.00 0.00 35 1018.1
20260507041304 80 0 0.0 0.0 0.00 0.00 0.00 33 1018.1
20260507035804 79 0 0.0 0.0 0.00 0.00 0.00 33 1018.0
20260507034304 79 0 0.0 0.0 0.00 0.00 0.00 34 1017.7
20260507031303 80 0 0.0 0.0 0.00 0.00 0.00 33 1017.6
20260507025803 81 0 0.0 0.0 0.00 0.00 0.00 33 1017.5
20260507024303 80 0 0.0 0.0 0.00 0.00 0.00 32 1017.3
20260507022804 82 0 0.0 0.0 0.00 0.00 0.00 31 1017.2
20260507021304 80 0 0.0 0.0 0.00 0.00 0.00 33 1017.2
20260507015804 79 0 0.0 0.0 0.00 0.00 0.00 34 1017.0
20260507014305 78 0 0.0 0.0 0.00 0.00 0.00 35 1017.0
20260507012805 81 0 0.0 0.0 0.00 0.00 0.00 33 1017.1
20260507011303 82 0 0.0 0.0 0.00 0.00 0.00 33 1017.0
20260507005804 80 0 0.0 0.0 0.00 0.00 0.00 35 1017.1
20260507004304 78 0 0.0 0.0 0.00 0.00 0.00 35 1017.0
20260507002805 82 0 0.0 0.0 0.00 0.00 0.00 33 1017.1
20260507001304 82 0 0.0 0.0 0.00 0.00 0.00 33 1017.0
20260506235804 82 0 0.0 0.0 0.00 0.00 0.00 34 1017.1
20260506234303 83 0 0.0 0.0 0.00 0.00 0.00 34 1017.2
20260506232804 82 0 0.0 0.0 0.00 0.00 0.00 33 1017.3
20260506231304 84 0 0.0 0.0 0.00 0.00 0.00 33 1017.2
20260506225804 85 0 0.0 0.0 0.00 0.00 0.00 33 1017.3
20260506224305 84 0 0.0 0.0 0.00 0.00 0.00 33 1017.4
20260506222805 81 0 0.0 0.0 0.00 0.00 0.00 35 1017.5
20260506221304 85 0 0.0 0.0 0.00 0.00 0.00 33 1017.5
20260506215804 86 0 0.0 0.0 0.00 0.00 0.00 33 1017.5
20260506214303 87 0 0.0 0.0 0.00 0.00 0.00 32 1017.7
20260506212804 87 0 0.0 0.0 0.00 0.00 0.00 31 1017.6
20260506211304 87 0 0.0 0.0 0.00 0.00 0.00 32 1017.6
20260506205804 87 0 0.0 0.0 0.00 0.00 0.00 32 1017.6
20260506204304 85 0 0.0 0.0 0.00 0.00 0.00 33 1017.6
20260506202805 87 0 0.0 0.0 0.00 0.00 0.00 32 1017.6
20260506201304 88 0 0.0 0.0 0.00 0.00 0.00 32 1017.5
20260506195804 87 0 0.0 0.0 0.00 0.00 0.00 32 1017.5
20260506194304 88 0 0.0 0.0 0.00 0.00 0.00 32 1017.4
20260506192805 87 0 0.0 0.0 0.00 0.00 0.00 33 1017.2
20260506191304 83 0 0.0 0.0 0.00 0.00 0.00 35 1017.0
20260506185803 83 0 0.0 0.0 0.00 0.00 0.00 35 1016.9
20260506184305 86 0 0.0 0.0 0.00 0.00 0.00 34 1016.7
20260506182802 85 0 0.0 0.0 0.00 0.00 0.00 33 1016.6
20260506181304 86 0 0.0 0.0 0.00 0.00 0.00 32 1016.5
20260506175805 88 0 0.0 0.0 0.00 0.00 0.00 30 1016.5
20260506174305 87 0 0.0 0.0 0.00 0.00 0.00 30 1016.3
20260506172804 87 0 0.0 0.0 0.00 0.00 0.00 28 1016.2
20260506171304 91 0 0.0 0.0 0.00 0.00 0.00 29 1016.3
20260506165804 88 0 0.0 0.0 0.00 0.00 0.00 30 1016.2
20260506164304 85 0 0.0 0.0 0.00 0.00 0.00 31 1016.1
20260506162805 82 0 0.0 0.0 0.00 0.00 0.00 34 1016.1
20260506161303 85 0 0.0 0.0 0.00 0.00 0.00 32 1016.1
20260506155804 82 0 0.0 0.0 0.00 0.00 0.00 35 1016.0
20260506154304 83 0 0.0 0.0 0.00 0.00 0.00 33 1016.0
20260506152805 87 0 0.0 0.0 0.00 0.00 0.00 30 1016.0
20260506151305 88 0 0.0 0.0 0.00 0.00 0.00 30 1016.2
20260506145804 89 0 0.0 0.0 0.00 0.00 0.00 29 1016.3
20260506144304 87 0 0.0 0.0 0.00 0.00 0.00 31 1016.3
20260506142804 90 0 0.0 0.0 0.00 0.00 0.00 27 1016.3
20260506141304 86 0 0.0 0.0 0.00 0.00 0.00 29 1016.4
20260506135802 89 0 0.0 0.0 0.00 0.00 0.00 28 1016.4
20260506134303 85 0 0.0 0.0 0.00 0.00 0.00 30 1016.4
20260506132804 84 0 0.0 0.0 0.00 0.00 0.00 29 1016.4
20260506131303 88 0 0.0 0.0 0.00 0.00 0.00 30 1016.4
20260506125804 92 0 0.0 0.0 0.00 0.00 0.00 27 1016.5
20260506124305 90 0 0.0 0.0 0.00 0.00 0.00 28 1016.6
20260506122805 91 0 0.0 0.0 0.00 0.00 0.00 28 1016.7
20260506121304 86 0 0.0 0.0 0.00 0.00 0.00 30 1016.8